Flag for Canada Weather past 2 weeks in Calgary, Alberta, Canada

Now
50 °F

Overcast.


Feels Like: 46 °F
Forecast: 50 / 60 °F
Wind: 9 mph from North

Location: Calgary International

Current Time: Jun 2, 2015 at 5:34:53 AM

Latest Report: Jun 2, 2015 at 5:00 AM


Visibility: 15 mi

Pressure: 29.96 "Hg

Humidity: 76%

Dew point: 43 °F

Location of CalgaryLocation

Historic Weather in Calgary — Graph

°F

Calgary temperature yesterday

Maximum temperature yesterday: 72 °F (at 2:00 PM)
Minimum temperature yesterday: 46 °F (at 5:00 AM)
Average temperature yesterday: 61 °F

Past Weeks' High & Low Weather Summary

 TemperatureHumidityPressure
High77 °F (May 31, 4:00 PM)94% (May 31, 12:00 AM)30.44 "Hg (May 31, 12:00 AM)
Low36 °F (May 18, 5:00 AM)11% (May 31, 7:00 PM)29.72 "Hg (May 31, 6:00 PM)
Average57 °F49%30.08 "Hg
* Reported May 18 4:00 AM — Jun 2 4:00 AM, Calgary, Weather by CustomWeather, © 2015

Note: Actual official high and low records may vary slightly from our data, if they occured in-between our weather recording intervals... More about our weather records

Advertising

Calgary weather history for previous 24 hours

 ConditionsComfort  
Time TempWeatherWind HumidityBarometerVisibility
4:00 AM
Tue, Jun 2
50 °FPassing clouds.10 mph82%29.96 "Hg15 mi
3:00 AM54 °FPassing clouds.10 mph77%29.96 "Hg15 mi
2:00 AM55 °FPassing clouds.12 mph72%29.95 "Hg15 mi
1:00 AM55 °FPassing clouds.9 mph72%29.96 "Hg15 mi
12:00 AM57 °FPassing clouds.9 mph67%29.97 "Hg15 mi
11:00 PM
Mon, Jun 1
57 °FMostly cloudy.10 mph72%29.95 "Hg15 mi
10:00 PM59 °FSprinkles. Overcast.10 mph72%29.95 "Hg15 mi
9:00 PM66 °FSprinkles. More clouds than sun.6 mph46%29.92 "Hg40 mi
8:54 PM66 °FRain showers. Mostly cloudy.7 mph46%29.92 "Hg40 mi
8:00 PM70 °FMostly cloudy.No wind33%29.90 "Hg40 mi
7:00 PM70 °FCloudy.3 mph33%29.90 "Hg30 mi
6:00 PM72 °FCloudy.3 mph31%29.90 "Hg30 mi
5:00 PM72 °FPartly sunny.6 mph29%29.91 "Hg30 mi
4:00 PM70 °FPartly sunny.7 mph35%29.91 "Hg40 mi
3:00 PM72 °FBroken clouds.6 mph33%29.91 "Hg40 mi
2:00 PM72 °FOvercast.16 mph36%29.92 "Hg40 mi
1:00 PM70 °FPartly sunny.12 mph38%29.93 "Hg40 mi
12:00 PM66 °FPartly sunny.14 mph43%29.94 "Hg40 mi
11:00 AM64 °FPartly sunny.14 mph43%29.94 "Hg40 mi
10:00 AM63 °FScattered clouds.9 mph49%29.94 "Hg40 mi
9:00 AM59 °FScattered clouds.9 mph55%29.94 "Hg40 mi
8:00 AM55 °FScattered clouds.6 mph63%29.94 "Hg40 mi
7:00 AM50 °FPassing clouds.No wind76%29.94 "Hg40 mi
6:00 AM48 °FPassing clouds.No wind76%29.93 "Hg30 mi
5:00 AM46 °FPassing clouds.No wind76%29.93 "Hg15 mi
Weather by CustomWeather, © 2015

See weather overviewHow to use our weather pages